Weather History for Jonesboro, AR

Change the Weather History Date:

Thursday, March 22, 2012

  Actual Average Record
Temperature  
Mean Temperature 61 °F 52 °F  
Max Temperature 70 °F 62 °F 88 °F (1907)
Min Temperature 52 °F 42 °F 23 °F (1974)
Degree Days  
Heating Degree Days 4 13  
Month to date heating degree days 139 359  
Since 1 July heating degree days 2578 3315  
Cooling Degree Days 0 0  
Month to date cooling degree days 46 0  
Year to date cooling degree days 49 0  
Growing Degree Days 10 (Base 50)    
Moisture  
Dew Point 50 °F    
Average Humidity 68    
Maximum Humidity 89    
Minimum Humidity 47    
Precipitation  
Precipitation 0.36 in 0.15 in 2.19 in (1948)
Month to date precipitation 4.67 3.11  
Year to date precipitation 9.70 10.26  
Snow  
Snow 0.00 in 0.00 in T in (1952)
Month to date snowfall 0.0 0.6  
Since 1 July snowfall 5.5 4.7  
Snow Depth 0.00 in    
Sea Level Pressure  
Sea Level Pressure 29.99 in    
Wind  
Wind Speed 6 mph (SE)    
Max Wind Speed 13 mph    
Max Gust Speed 21 mph    
Visibility 9 miles    
Events Rain    
T = Trace of Precipitation, MM = Missing Value Source: NWS Daily Summary

Daily Weather History Graph

Daily Weather History Graph

Search for Another Location

Airport:

Trip Planner

Search our weather history database for the weather conditions in past years. The results will help you decide how hot, cold, wet, or windy it might be!

Date:

Astronomy

Mar. 22, 2012 Rise Set
Actual Time 7:02 AM CDT 7:16 PM CDT
Civil Twilight 6:37 AM CDT 7:42 PM CDT
Nautical Twilight 6:07 AM CDT 8:11 PM CDT
Astronomical Twilight 5:36 AM CDT 8:42 PM CDT
Moon 6:43 AM CDT (3/22) 7:38 PM CDT (3/22)
Length of Visible Light 13h 04m
Length of Day
12h 13m
New Moon, 0% of the Moon is Illuminated
Mar 22
New Moon
Mar 30
First Quarter
Apr 6
Full
Apr 13
Last Quarter
Apr 21
New

Hourly Weather History & Observations

Time (CDT) Temp. Dew Point Humidity Pressure Visibility Wind Dir Wind Speed Gust Speed Precip Events Conditions
12:49 AM 55.4 °F 51.8 °F 88% 30.00 in 3.0 mi WSW 13.8 mph - 0.19 in Rain Heavy Rain
12:53 AM 55.0 °F 52.0 °F 89% 29.99 in 4.0 mi WSW 11.5 mph - 0.20 in Rain Rain
1:01 AM 53.6 °F 51.8 °F 94% 30.00 in 5.0 mi WSW 11.5 mph - 0.02 in Rain Rain
1:21 AM 53.6 °F 51.8 °F 94% 30.02 in 4.0 mi WSW 8.1 mph - 0.06 in Rain Heavy Rain
1:34 AM 53.6 °F 51.8 °F 94% 30.03 in 3.0 mi Variable 5.8 mph - 0.11 in Rain Rain
1:53 AM 54.0 °F 50.0 °F 86% 30.01 in 10.0 mi WSW 10.4 mph - 0.13 in Rain Light Rain
2:53 AM 53.1 °F 48.9 °F 86% 30.00 in 4.0 mi South 4.6 mph - 0.09 in Rain Heavy Rain
3:53 AM 53.1 °F 48.0 °F 83% 30.01 in 7.0 mi Calm Calm - 0.06 in Rain Rain
4:53 AM 53.1 °F 48.9 °F 86% 29.96 in 8.0 mi East 6.9 mph - 0.08 in Rain Rain
5:53 AM 52.0 °F 48.0 °F 86% 29.98 in 10.0 mi East 8.1 mph - 0.01 in   Scattered Clouds
6:53 AM 52.0 °F 48.9 °F 89% 30.01 in 10.0 mi East 4.6 mph - N/A   Clear
7:04 AM 51.8 °F 48.2 °F 88% 30.02 in 10.0 mi ESE 6.9 mph - N/A   Partly Cloudy
7:53 AM 52.0 °F 48.9 °F 89% 30.03 in 10.0 mi East 3.5 mph - N/A   Clear
8:04 AM 51.8 °F 48.2 °F 88% 30.03 in 10.0 mi East 4.6 mph - N/A   Partly Cloudy
8:53 AM 53.1 °F 48.9 °F 86% 30.03 in 10.0 mi East 8.1 mph - N/A   Clear
9:53 AM 55.0 °F 48.9 °F 80% 30.06 in 10.0 mi East 4.6 mph - N/A   Clear
10:53 AM 57.0 °F 50.0 °F 77% 30.06 in 10.0 mi Calm Calm - N/A   Clear
11:53 AM 60.1 °F 51.1 °F 72% 30.04 in 10.0 mi Calm Calm - N/A   Clear
12:53 PM 63.0 °F 52.0 °F 67% 30.03 in 10.0 mi ESE 6.9 mph - N/A   Clear
1:53 PM 64.9 °F 51.1 °F 61% 30.01 in 10.0 mi SE 5.8 mph - N/A   Clear
2:53 PM 66.9 °F 53.1 °F 61% 29.99 in 10.0 mi East 6.9 mph - N/A   Clear
3:53 PM 69.1 °F 50.0 °F 51% 29.97 in 10.0 mi SE 6.9 mph - N/A   Clear
4:53 PM 69.1 °F 48.9 °F 49% 29.95 in 10.0 mi SSE 9.2 mph - N/A   Clear
5:53 PM 69.1 °F 48.9 °F 49% 29.94 in 10.0 mi South 8.1 mph - N/A   Clear
6:53 PM 66.0 °F 51.1 °F 59% 29.95 in 10.0 mi South 8.1 mph - N/A   Clear
7:53 PM 63.0 °F 52.0 °F 67% 29.95 in 10.0 mi SSE 4.6 mph - N/A   Clear
8:53 PM 59.0 °F 52.0 °F 78% 29.94 in 10.0 mi ESE 4.6 mph - N/A   Clear
9:53 PM 57.0 °F 51.1 °F 81% 29.94 in 10.0 mi NE 4.6 mph - N/A   Clear
10:53 PM 55.9 °F 51.1 °F 84% 29.93 in 10.0 mi NE 5.8 mph - N/A   Clear
11:53 PM 57.0 °F 53.1 °F 87% 29.93 in 10.0 mi ENE 8.1 mph - N/A   Clear